Location: Lane
(33.5226°N, 79.8788°W)
Time: 04:58:42
(UTC+00:00)

Altair - Pass Details

Date: 10 October 2022
Orbit: 1501 x 1682 km, 47.2° (Epoch: 08 December)

Event Time Altitude Azimuth Distance (km) Brightness Sun altitude
Rises 15:50:51 0° 302° (WNW) 4,904 9.8 45.9°
Reaches altitude 10° 15:54:09 10° 297° (WNW) 3,928 9.4 46.2°
Maximum altitude 16:03:34 46° 228° (SW) 2,143 9.1 47.0°
Drops below altitude 10° 16:13:01 10° 159° (SSE) 3,918 10.6 47.7°
Sets 16:16:19 0° 153° (SSE) 4,890 10.8 47.9°
